Regional Weather Roundup
Issued by NWS

Home | Current Version | Previous Version | Text Only | Print | Product List | Glossary Off
Versions: 1 2 3 4 5 6 7 8 9 10 11 12 13 14 15 16 17 18 19 20 21 22 23 24 25 26 27 28 29 30 31 32 33 34 35 36 37 38 39 40 41 42 43 44 45 46 47 48 49 50

000
ASUS43 KMPX 271410
RWRMN
WEATHER ROUNDUP FOR MINNESOTA
NATIONAL WEATHER SERVICE TWIN CITIES/CHANHASSEN MN
900 AM CDT TUE SEP 27 2016


NOTE: "FAIR" INDICATES FEW OR NO CLOUDS BELOW 12,000 FEET WITH NO
SIGNIFICANT WEATHER AND/OR OBSTRUCTIONS TO VISIBILITY. N/A MEANS
CURRENT SKY AND/OR WEATHER CONDITIONS ARE NOT AVAILABLE.

MNZ060>063-068>070-271500-
   Twin Cities Metro

CITY           SKY/WX    TMP DP  RH WIND       PRES   REMARKS
TWIN CITIES    MOSUNNY   52  41  66 W17       29.83F
ST PAUL        SUNNY     53  41  63 W21G26    29.83S
CRYSTAL        SUNNY     53  40  61 W15G24    29.82F
BLAINE         MOSUNNY   54  43  66 W15G22    29.81F
LAKEVILLE      SUNNY     48  41  76 W12G21    29.84S
EDEN PRAIRIE   SUNNY     52  41  66 W13       29.84S
LAKEVILLE      SUNNY     48  41  76 W12G21    29.84S
SOUTH ST PAUL  SUNNY     53  41  64 W12G21    29.82S
LAKE ELMO      FAIR      52  43  71 W15G21    29.82S
$$
MNZ001>005-007-008-013>017-022>024-027-028-271500-
   Northwest Minnesota

CITY           SKY/WX    TMP DP  RH WIND       PRES   REMARKS
BEMIDJI        CLOUDY    45  41  86 NW18      29.81R
HALLOCK        CLOUDY    48  45  87 NW14G22   29.89S
ROSEAU         CLOUDY    46  43  87 W10G18    29.82S
WARROAD        CLOUDY    48  45  87 NW16G22   29.81S
THIEF RVR FALL CLOUDY    46  42  86 NW13      29.88S
CROOKSTON      SUNNY     45  43  93 NW13      29.90S
FOSSTON        CLOUDY    43  39  87 W12G18    29.87S
DETROIT LAKES  SUNNY     45  41  87 NW17      29.89S
MOORHEAD       SUNNY     46  37  71 NW13      29.92S
PARK RAPIDS    MOSUNNY   46  40  79 NW13      29.83R
MAHNOMEN       FAIR      44  40  86 NW13G18   29.88R
$$
MNZ006-009>011-018-025>026-271500-
   North Central Minnesota

CITY           SKY/WX    TMP DP  RH WIND       PRES   REMARKS
BAUDETTE       LGT RAIN  49  42  77 NW17G26   29.76S
FLAG ISLAND    CLOUDY    48  45  87 NW22      29.78R
INTL FALLS     LGT RAIN  47  45  93 NW10      29.72R
WASKISH        CLOUDY    48  45  87 NW13      29.78R
BIG FORK       CLOUDY    48  43  81 NW6       29.74S
GRAND RAPIDS   CLOUDY    48  45  89 NW15      29.76R
ORR            CLOUDY    46  43  87 NW12G20   29.67R
COOK           CLOUDY    46  45  93 NW7G16    29.69R
WALKER         CLOUDY    46  41  83 NW14G21   29.79S
$$
MNZ012-019>021-037-271500-
   Northeast Minnesota

CITY           SKY/WX    TMP DP  RH WIND       PRES   REMARKS
DULUTH         CLOUDY    49  44  83 NW14G23   29.68R
ELY            DRIZZLE   46  45  93 NW12G21   29.63S
HIBBING        CLOUDY    47  43  86 NW20G26   29.70R
EVELETH        CLOUDY    47  43  84 NW14G25   29.69R
DULUTH HARBOR  CLOUDY    54  46  76 W15       29.69S
TWO HARBORS    CLOUDY    52  46  82 W6        29.63S
SILVER BAY     LGT RAIN  50  46  87 CALM      29.60S
GRAND MARAIS     N/A     50  42  74 VRB6      29.55R
G MARAIS ARPRT DRIZZLE   43  37  81 NW10G23   29.54R
$$
MNZ029>031-032-039>041-046>048-054>057-064-271500-
   West Central Minnesota

CITY           SKY/WX    TMP DP  RH WIND       PRES   REMARKS
FERGUS FALLS   SUNNY     43  39  87 NW7       29.94S
MORRIS         SUNNY     48  39  71 NW14      29.91F
ALEXANDRIA     SUNNY     47  40  76 NW13      29.89F
ELBOW LAKE     FAIR      43  39  84 NW9       29.92S
WADENA         SUNNY     46  41  81 NW14G23   29.84F
GLENWOOD       SUNNY     45  39  81 W9        29.89F
BENSON         SUNNY     46  37  71 NW10      29.91F
ORTONVILLE     SUNNY     48  37  66 CALM      29.94S
MADISON        SUNNY     52  41  66 NW9       29.94F
WILLMAR        FAIR      46  39  76 W12       29.92S
$$
MNZ033>034-036-042>043-049>051-058-059-271500-
   Central Minnesota

CITY           SKY/WX    TMP DP  RH WIND       PRES   REMARKS
ST CLOUD       SUNNY     49  42  77 W17G28    29.83F
SAUK CENTRE    FAIR      46  40  78 W13       29.88S
PAYNESVILLE    SUNNY     48  40  73 W12G17    29.89S
AITKIN         CLOUDY    50  41  71 W6        29.75S
PINE RIVER     PTSUNNY   48  43  81 W7        29.83S
BRAINERD       PTSUNNY   48  42  80 W12       29.80S
STAPLES        SUNNY     46  41  81 W13G18    29.83S
LONG PRAIRIE   FAIR      45  39  81 W15       29.86F
LITTLE FALLS   SUNNY     48  41  76 W10       29.84S
LITCHFIELD     SUNNY     50  43  76 NW9       29.89S
BUFFALO        SUNNY     50  41  69 W16       29.86S
MAPLE LAKE     SUNNY     51  43  75 W10G18    29.86S
HUTCHINSON     SUNNY     49  42  76 W8        29.90S
$$
MNZ037-044-045-052-053-271500-
   East Central Minnesota

CITY           SKY/WX    TMP DP  RH WIND       PRES   REMARKS
PRINCETON      SUNNY     50  43  76 W14       29.81F
MORA           PTSUNNY   46  41  81 W7        29.80R
CAMBRIDGE      MOSUNNY   52  39  62 W13       29.78S
MOOSE LAKE     CLOUDY    50  43  76 NW8       29.72S
HINCKLEY       CLOUDY    52  43  71 W9        29.76S
CLOQUET        CLOUDY    50  43  76 W17G23    29.70S
MCGREGOR       CLOUDY    50  43  76 NW9G17    29.75R
$$
MNZ071>073-080-081-089-090-097-098-271500-
   Southwest Minnesota

CITY           SKY/WX    TMP DP  RH WIND       PRES   REMARKS
MONTEVIDEO     SUNNY     52  39  62 NW6       29.95F
GRANITE FALLS  SUNNY     49  41  74 W9        29.95S
CANBY          SUNNY     52  40  64 NW8       29.96F
MARSHALL       SUNNY     52  38  58 NW12      29.95F
REDWOOD FALLS  SUNNY     48  38  68 W10       29.92F
OLIVIA         SUNNY     50  41  71 W9        29.91S
PIPESTONE      SUNNY     46  39  76 W6        29.97F
WINDOM         SUNNY     48  39  71 W7        29.95S
WORTHINGTON    SUNNY     50  39  66 W10       29.96F
JACKSON        MOSUNNY   50  36  57 W8        29.95S
TRACY          SUNNY     52  39  59 W7        29.96S
$$
MNZ065>067-074>077-082>085-091>093-271500-
   South Central Minnesota

CITY           SKY/WX    TMP DP  RH WIND       PRES   REMARKS
MANKATO        SUNNY     49  40  71 W13       29.90F
NEW ULM        SUNNY     48  37  66 W13       29.91F
ST JAMES       SUNNY     52  37  58 W12       29.94F
FAIRMONT       SUNNY     51  38  60 NW13      29.94S
GLENCOE        SUNNY     50  43  77 W13G20    29.88F
FARIBAULT      SUNNY     52  41  66 W13G20    29.87F
OWATONNA       SUNNY     52  39  62 W13G18    29.88S
WASECA         SUNNY     50  41  71 W12       29.91S
ALBERT LEA     SUNNY     50  39  66 W7        29.90S
$$
MNZ078>079-086>088-094>096-271500-
   Southeast Minnesota

CITY           SKY/WX    TMP DP  RH WIND       PRES   REMARKS
ROCHESTER      SUNNY     51  41  68 W16G23    29.85F
RED WING       SUNNY     54  39  58 NW15G22   29.80S
STANTON        SUNNY     52  41  67 W14       29.84S
DODGE CENTER   MOSUNNY   50  39  66 NW13G22   29.86S
WINONA         SUNNY     54  41  62 NW12      29.82S
AUSTIN           N/A     50  39  66 W13       29.88S
PRESTON        SUNNY     51  39  65 W18G25    29.86S
$$
ABBREVIATIONS USED IN REMARKS
   TC - TEMPERATURES IN CELSIUS
  WCI - WIND CHILL INDEX
   HX - HEAT INDEX
  VSB - VISIBILITY
$$




USA.gov is the U.S. government's official web portal to all federal, state and local government web resources and services.